owner,sensor,date,latitude,longitude,vertical_datum,wind_speed,wind_to_direction,wind_speed_of_gust,qcFlag 
COMPS,ioos:station:USF.COMPS:SHP:1,2019-09-01T00:54:00,30.0600,-84.2910,10.0,1.84,51.69,3.82,'11111222,11111222,11111222' 
COMPS,ioos:station:USF.COMPS:SHP:1,2019-09-01T01:54:00,30.0600,-84.2910,10.0,2.67,33.85,4.5,'11111222,11111222,11111222' 
COMPS,ioos:station:USF.COMPS:SHP:1,2019-09-01T02:54:00,30.0600,-84.2910,10.0,2.58,29.97,4.7,'11111222,11111222,11111222' 
COMPS,ioos:station:USF.COMPS:SHP:1,2019-09-01T03:54:00,30.0600,-84.2910,10.0,2.13,59.83,4.9,'11111222,11111222,11111222' 
COMPS,ioos:station:USF.COMPS:SHP:1,2019-09-01T04:54:00,30.0600,-84.2910,10.0,2.63,64.39,4.31,'11111222,11111222,11111222' 
COMPS,ioos:station:USF.COMPS:SHP:1,2019-09-01T05:54:00,30.0600,-84.2910,10.0,1.68,55.22,4.41,'11111222,11111222,11111222' 
COMPS,ioos:station:USF.COMPS:SHP:1,2019-09-01T06:54:00,30.0600,-84.2910,10.0,1.56,51.07,3.43,'11111222,11111222,11111222' 
COMPS,ioos:station:USF.COMPS:SHP:1,2019-09-01T07:54:00,30.0600,-84.2910,10.0,1.69,55.39,4.5,'11111222,11111222,11111222' 
COMPS,ioos:station:USF.COMPS:SHP:1,2019-09-01T08:54:00,30.0600,-84.2910,10.0,1.75,61.15,4.11,'11111222,11111222,11111222' 
COMPS,ioos:station:USF.COMPS:SHP:1,2019-09-01T09:54:00,30.0600,-84.2910,10.0,1.98,55.06,3.82,'11111222,11111222,11111222' 
COMPS,ioos:station:USF.COMPS:SHP:1,2019-09-01T10:54:00,30.0600,-84.2910,10.0,1.85,52.23,3.62,'11111222,11111222,11111222' 
COMPS,ioos:station:USF.COMPS:SHP:1,2019-09-01T11:54:00,30.0600,-84.2910,10.0,1.78,76.01,3.82,'11111222,11111222,11111222' 
COMPS,ioos:station:USF.COMPS:SHP:1,2019-09-01T12:54:00,30.0600,-84.2910,10.0,2.27,50.02,3.92,'11111222,11111222,11111222' 
COMPS,ioos:station:USF.COMPS:SHP:1,2019-09-01T13:54:00,30.0600,-84.2910,10.0,1.44,45.77,2.94,'11111222,11111222,11111222' 
COMPS,ioos:station:USF.COMPS:SHP:1,2019-09-01T14:54:00,30.0600,-84.2910,10.0,2.01,49.42,4.5,'11111222,11111222,11111222' 
COMPS,ioos:station:USF.COMPS:SHP:1,2019-09-01T15:54:00,30.0600,-84.2910,10.0,1.74,63.59,3.82,'11111222,11111222,11111222' 
COMPS,ioos:station:USF.COMPS:SHP:1,2019-09-01T16:54:00,30.0600,-84.2910,10.0,1.44,97.77,2.84,'11111222,11111222,11111222' 
COMPS,ioos:station:USF.COMPS:SHP:1,2019-09-01T17:54:00,30.0600,-84.2910,10.0,2.29,131.72,3.03,'11111222,11111222,11111222' 
COMPS,ioos:station:USF.COMPS:SHP:1,2019-09-01T18:54:00,30.0600,-84.2910,10.0,1.43,165.06,2.45,'11111222,11111222,11111222' 
COMPS,ioos:station:USF.COMPS:SHP:1,2019-09-01T19:54:00,30.0600,-84.2910,10.0,2.01,200.7,2.84,'11111222,11111222,11111222' 
COMPS,ioos:station:USF.COMPS:SHP:1,2019-09-01T20:54:00,30.0600,-84.2910,10.0,1.11,231.05,1.96,'11111222,11111222,11111222' 
COMPS,ioos:station:USF.COMPS:SHP:1,2019-09-01T21:54:00,30.0600,-84.2910,10.0,1.92,39.49,4.31,'11111222,11111222,11111222' 
COMPS,ioos:station:USF.COMPS:SHP:1,2019-09-01T22:54:00,30.0600,-84.2910,10.0,4.11,114.62,7.25,'11111222,11111222,11111222' 
COMPS,ioos:station:USF.COMPS:SHP:1,2019-09-01T23:54:00,30.0600,-84.2910,10.0,1.08,13.51,2.05,'11111222,11111222,11111222' 
COMPS,ioos:station:USF.COMPS:SHP:1,2019-09-02T00:54:00,30.0600,-84.2910,10.0,1.73,49.1,5.39,'11111222,11111222,11111222' 
COMPS,ioos:station:USF.COMPS:SHP:1,2019-09-02T01:54:00,30.0600,-84.2910,10.0,2.87,9.83,3.62,'11111222,11111222,11111222' 
COMPS,ioos:station:USF.COMPS:SHP:1,2019-09-02T02:54:00,30.0600,-84.2910,10.0,2.17,20.16,3.33,'11111222,11111222,11111222' 
COMPS,ioos:station:USF.COMPS:SHP:1,2019-09-02T03:54:00,30.0600,-84.2910,10.0,1.64,49.85,3.62,'11111222,11111222,11111222' 
COMPS,ioos:station:USF.COMPS:SHP:1,2019-09-02T04:54:00,30.0600,-84.2910,10.0,2.09,43.99,3.92,'11111222,11111222,11111222' 
COMPS,ioos:station:USF.COMPS:SHP:1,2019-09-02T05:54:00,30.0600,-84.2910,10.0,2.1,40.55,4.21,'11111222,11111222,11111222' 
COMPS,ioos:station:USF.COMPS:SHP:1,2019-09-02T06:54:00,30.0600,-84.2910,10.0,2.16,31.7,4.21,'11111222,11111222,11111222' 
COMPS,ioos:station:USF.COMPS:SHP:1,2019-09-02T07:54:00,30.0600,-84.2910,10.0,2.34,18.09,3.52,'11111222,11111222,11111222' 
COMPS,ioos:station:USF.COMPS:SHP:1,2019-09-02T08:54:00,30.0600,-84.2910,10.0,2.04,51.65,4.6,'11111222,11111222,11111222' 
COMPS,ioos:station:USF.COMPS:SHP:1,2019-09-02T09:54:00,30.0600,-84.2910,10.0,3.41,8.76,4.6,'11111222,11111222,11111222' 
COMPS,ioos:station:USF.COMPS:SHP:1,2019-09-02T10:54:00,30.0600,-84.2910,10.0,3.24,25.77,5.09,'11111222,11111222,11111222' 
COMPS,ioos:station:USF.COMPS:SHP:1,2019-09-02T11:54:00,30.0600,-84.2910,10.0,3.02,18.19,4.6,'11111222,11111222,11111222' 
COMPS,ioos:station:USF.COMPS:SHP:1,2019-09-02T14:54:00,30.0600,-84.2910,10.0,3.47,30.23,6.27,'11111222,11111222,11111222' 
COMPS,ioos:station:USF.COMPS:SHP:1,2019-09-02T15:54:00,30.0600,-84.2910,10.0,5.06,20.81,7.44,'11111222,11111222,11111222' 
COMPS,ioos:station:USF.COMPS:SHP:1,2019-09-02T16:54:00,30.0600,-84.2910,10.0,4.27,28.67,7.93,'11111222,11111222,11111222' 
COMPS,ioos:station:USF.COMPS:SHP:1,2019-09-02T17:54:00,30.0600,-84.2910,10.0,2.51,44.51,5.87,'11111222,11111222,11111222' 
COMPS,ioos:station:USF.COMPS:SHP:1,2019-09-02T18:54:00,30.0600,-84.2910,10.0,3.6,22.94,7.05,'11111222,11111222,11111222' 
COMPS,ioos:station:USF.COMPS:SHP:1,2019-09-02T19:54:00,30.0600,-84.2910,10.0,3.29,24.67,6.37,'11111222,11111222,11111222' 
COMPS,ioos:station:USF.COMPS:SHP:1,2019-09-02T20:54:00,30.0600,-84.2910,10.0,5.22,28.75,8.13,'11111222,11111222,11111222' 
COMPS,ioos:station:USF.COMPS:SHP:1,2019-09-02T21:54:00,30.0600,-84.2910,10.0,2.73,36.24,6.56,'11111222,11111222,11111222' 
COMPS,ioos:station:USF.COMPS:SHP:1,2019-09-02T22:54:00,30.0600,-84.2910,10.0,3.97,21.21,6.37,'11111222,11111222,11111222' 
COMPS,ioos:station:USF.COMPS:SHP:1,2019-09-02T23:54:00,30.0600,-84.2910,10.0,2.91,14.53,4.11,'11111222,11111222,11111222' 
COMPS,ioos:station:USF.COMPS:SHP:1,2019-09-03T00:54:00,30.0600,-84.2910,10.0,2.57,8.98,3.82,'11111222,11111222,11111222' 
COMPS,ioos:station:USF.COMPS:SHP:1,2019-09-03T01:54:00,30.0600,-84.2910,10.0,1.59,51.15,3.13,'11111222,11111222,11111222' 
COMPS,ioos:station:USF.COMPS:SHP:1,2019-09-03T02:54:00,30.0600,-84.2910,10.0,2.13,54.11,4.31,'11111222,11111222,11111222' 
COMPS,ioos:station:USF.COMPS:SHP:1,2019-09-03T03:54:00,30.0600,-84.2910,10.0,2.02,45.76,4.31,'11111222,11111222,11111222' 
COMPS,ioos:station:USF.COMPS:SHP:1,2019-09-03T04:54:00,30.0600,-84.2910,10.0,2.13,32.99,4.01,'11111222,11111222,11111222' 
COMPS,ioos:station:USF.COMPS:SHP:1,2019-09-03T05:54:00,30.0600,-84.2910,10.0,2.46,40.02,4.9,'11111222,11111222,11111222' 
COMPS,ioos:station:USF.COMPS:SHP:1,2019-09-03T06:54:00,30.0600,-84.2910,10.0,2.22,12.03,3.33,'11111222,11111222,11111222' 
COMPS,ioos:station:USF.COMPS:SHP:1,2019-09-03T07:54:00,30.0600,-84.2910,10.0,2.24,16.67,3.03,'11111222,11111222,11111222' 
COMPS,ioos:station:USF.COMPS:SHP:1,2019-09-03T08:54:00,30.0600,-84.2910,10.0,1.91,21.7,3.13,'11111222,11111222,11111222' 
COMPS,ioos:station:USF.COMPS:SHP:1,2019-09-03T09:54:00,30.0600,-84.2910,10.0,2.38,12.48,3.82,'11111222,11111222,11111222' 
COMPS,ioos:station:USF.COMPS:SHP:1,2019-09-03T10:54:00,30.0600,-84.2910,10.0,2.6,22.28,4.41,'11111222,11111222,11111222' 
COMPS,ioos:station:USF.COMPS:SHP:1,2019-09-03T11:54:00,30.0600,-84.2910,10.0,2.57,37.12,5.58,'11111222,11111222,11111222' 
COMPS,ioos:station:USF.COMPS:SHP:1,2019-09-03T12:54:00,30.0600,-84.2910,10.0,3.28,20.93,4.41,'11111222,11111222,11111222' 
COMPS,ioos:station:USF.COMPS:SHP:1,2019-09-03T13:54:00,30.0600,-84.2910,10.0,3.08,29.67,5.19,'11111222,11111222,11111222' 
COMPS,ioos:station:USF.COMPS:SHP:1,2019-09-03T14:54:00,30.0600,-84.2910,10.0,1.69,38.65,3.52,'11111222,11111222,11111222' 
COMPS,ioos:station:USF.COMPS:SHP:1,2019-09-03T15:54:00,30.0600,-84.2910,10.0,1.91,46.96,4.11,'11111222,11111222,11111222' 
COMPS,ioos:station:USF.COMPS:SHP:1,2019-09-03T16:54:00,30.0600,-84.2910,10.0,2.4,39.89,4.41,'11111222,11111222,11111222' 
COMPS,ioos:station:USF.COMPS:SHP:1,2019-09-03T17:54:00,30.0600,-84.2910,10.0,2.38,51.43,5.29,'11111222,11111222,11111222' 
COMPS,ioos:station:USF.COMPS:SHP:1,2019-09-03T18:54:00,30.0600,-84.2910,10.0,2.69,40.54,5.39,'11111222,11111222,11111222' 
COMPS,ioos:station:USF.COMPS:SHP:1,2019-09-03T19:54:00,30.0600,-84.2910,10.0,4.13,16.81,6.85,'11111222,11111222,11111222' 
COMPS,ioos:station:USF.COMPS:SHP:1,2019-09-03T20:54:00,30.0600,-84.2910,10.0,3.29,33.63,6.46,'11111222,11111222,11111222' 
COMPS,ioos:station:USF.COMPS:SHP:1,2019-09-03T21:54:00,30.0600,-84.2910,10.0,2.89,31.2,4.7,'11111222,11111222,11111222' 
COMPS,ioos:station:USF.COMPS:SHP:1,2019-09-03T22:54:00,30.0600,-84.2910,10.0,4.09,10.34,5.48,'11111222,11111222,11111222' 
COMPS,ioos:station:USF.COMPS:SHP:1,2019-09-03T23:54:00,30.0600,-84.2910,10.0,2.59,14.0,3.92,'11111222,11111222,11111222' 
COMPS,ioos:station:USF.COMPS:SHP:1,2019-09-04T00:54:00,30.0600,-84.2910,10.0,2.32,14.99,3.33,'11111222,11111222,11111222' 
COMPS,ioos:station:USF.COMPS:SHP:1,2019-09-04T01:54:00,30.0600,-84.2910,10.0,1.05,44.62,2.45,'11111222,11111222,11111222' 
COMPS,ioos:station:USF.COMPS:SHP:1,2019-09-04T02:54:00,30.0600,-84.2910,10.0,1.94,12.36,2.54,'11111222,11111222,11111222' 
COMPS,ioos:station:USF.COMPS:SHP:1,2019-09-04T03:54:00,30.0600,-84.2910,10.0,2.03,2.0,2.84,'11111222,11111222,11111222' 
COMPS,ioos:station:USF.COMPS:SHP:1,2019-09-04T04:54:00,30.0600,-84.2910,10.0,2.47,12.93,3.23,'11111222,11111222,11111222' 
COMPS,ioos:station:USF.COMPS:SHP:1,2019-09-04T05:54:00,30.0600,-84.2910,10.0,1.97,359.81,3.03,'11111222,11144222,11111222' 
COMPS,ioos:station:USF.COMPS:SHP:1,2019-09-04T06:54:00,30.0600,-84.2910,10.0,2.57,354.21,4.11,'11111222,11111222,11111222' 
COMPS,ioos:station:USF.COMPS:SHP:1,2019-09-04T07:54:00,30.0600,-84.2910,10.0,2.2,340.89,3.23,'11111222,11111222,11111222' 
COMPS,ioos:station:USF.COMPS:SHP:1,2019-09-04T08:54:00,30.0600,-84.2910,10.0,2.61,350.85,3.62,'11111222,11111222,11111222' 
COMPS,ioos:station:USF.COMPS:SHP:1,2019-09-04T09:54:00,30.0600,-84.2910,10.0,2.95,349.85,4.21,'11111222,11111222,11111222' 
COMPS,ioos:station:USF.COMPS:SHP:1,2019-09-04T10:54:00,30.0600,-84.2910,10.0,2.99,338.34,4.41,'11111222,11111222,11111222' 
COMPS,ioos:station:USF.COMPS:SHP:1,2019-09-04T11:54:00,30.0600,-84.2910,10.0,3.56,349.84,4.9,'11111222,11111222,11111222' 
COMPS,ioos:station:USF.COMPS:SHP:1,2019-09-04T12:54:00,30.0600,-84.2910,10.0,3.97,359.2,5.78,'11111222,11144222,11111222' 
COMPS,ioos:station:USF.COMPS:SHP:1,2019-09-04T13:54:00,30.0600,-84.2910,10.0,3.5,7.3,6.17,'11111222,11111222,11111222' 
COMPS,ioos:station:USF.COMPS:SHP:1,2019-09-04T14:54:00,30.0600,-84.2910,10.0,5.2,348.6,7.05,'11111222,11111222,11111222' 
COMPS,ioos:station:USF.COMPS:SHP:1,2019-09-04T15:54:00,30.0600,-84.2910,10.0,4.65,352.51,7.05,'11111222,11111222,11111222' 
COMPS,ioos:station:USF.COMPS:SHP:1,2019-09-04T16:54:00,30.0600,-84.2910,10.0,4.2,346.38,6.07,'11111222,11111222,11111222' 
COMPS,ioos:station:USF.COMPS:SHP:1,2019-09-04T17:54:00,30.0600,-84.2910,10.0,5.26,351.5,7.44,'11111222,11111222,11111222' 
COMPS,ioos:station:USF.COMPS:SHP:1,2019-09-04T18:54:00,30.0600,-84.2910,10.0,6.38,334.52,9.21,'11111222,11111222,11111222' 
COMPS,ioos:station:USF.COMPS:SHP:1,2019-09-04T19:54:00,30.0600,-84.2910,10.0,5.47,343.85,9.21,'11111222,11111222,11111222' 
COMPS,ioos:station:USF.COMPS:SHP:1,2019-09-04T20:54:00,30.0600,-84.2910,10.0,5.68,10.18,9.6,'11111222,11111222,11111222' 
COMPS,ioos:station:USF.COMPS:SHP:1,2019-09-04T21:54:00,30.0600,-84.2910,10.0,4.96,3.57,8.13,'11111222,11111222,11111222' 
COMPS,ioos:station:USF.COMPS:SHP:1,2019-09-04T22:54:00,30.0600,-84.2910,10.0,4.35,344.83,6.95,'11111222,11111222,11111222' 
COMPS,ioos:station:USF.COMPS:SHP:1,2019-09-04T23:54:00,30.0600,-84.2910,10.0,1.98,325.31,2.64,'11111222,11111222,11111222' 
COMPS,ioos:station:USF.COMPS:SHP:1,2019-09-05T00:54:00,30.0600,-84.2910,10.0,1.85,304.83,3.03,'11111222,11111222,11111222' 
COMPS,ioos:station:USF.COMPS:SHP:1,2019-09-05T01:54:00,30.0600,-84.2910,10.0,2.45,307.36,3.52,'11111222,11111222,11111222' 
COMPS,ioos:station:USF.COMPS:SHP:1,2019-09-05T02:54:00,30.0600,-84.2910,10.0,3.07,308.58,4.01,'11111222,11111222,11111222' 
COMPS,ioos:station:USF.COMPS:SHP:1,2019-09-05T03:54:00,30.0600,-84.2910,10.0,2.58,309.76,3.62,'11111222,11111222,11111222' 
COMPS,ioos:station:USF.COMPS:SHP:1,2019-09-05T04:54:00,30.0600,-84.2910,10.0,2.13,290.46,2.94,'11111222,11111222,11111222' 
COMPS,ioos:station:USF.COMPS:SHP:1,2019-09-05T05:54:00,30.0600,-84.2910,10.0,3.1,293.93,4.11,'11111222,11111222,11111222' 
COMPS,ioos:station:USF.COMPS:SHP:1,2019-09-05T06:54:00,30.0600,-84.2910,10.0,3.31,305.66,4.9,'11111222,11111222,11111222' 
COMPS,ioos:station:USF.COMPS:SHP:1,2019-09-05T07:54:00,30.0600,-84.2910,10.0,3.36,308.07,5.58,'11111222,11111222,11111222' 
COMPS,ioos:station:USF.COMPS:SHP:1,2019-09-05T08:54:00,30.0600,-84.2910,10.0,3.63,307.97,5.48,'11111222,11111222,11111222' 
COMPS,ioos:station:USF.COMPS:SHP:1,2019-09-05T09:54:00,30.0600,-84.2910,10.0,3.19,312.59,5.09,'11111222,11111222,11111222' 
COMPS,ioos:station:USF.COMPS:SHP:1,2019-09-05T10:54:00,30.0600,-84.2910,10.0,3.09,310.47,4.5,'11111222,11111222,11111222' 
COMPS,ioos:station:USF.COMPS:SHP:1,2019-09-05T11:54:00,30.0600,-84.2910,10.0,3.46,315.73,5.09,'11111222,11111222,11111222' 
COMPS,ioos:station:USF.COMPS:SHP:1,2019-09-05T12:54:00,30.0600,-84.2910,10.0,3.48,319.59,5.87,'11111222,11111222,11111222' 
COMPS,ioos:station:USF.COMPS:SHP:1,2019-09-05T13:54:00,30.0600,-84.2910,10.0,3.94,341.39,5.87,'11111222,11111222,11111222' 
COMPS,ioos:station:USF.COMPS:SHP:1,2019-09-05T14:54:00,30.0600,-84.2910,10.0,2.96,320.47,4.01,'11111222,11111222,11111222' 
COMPS,ioos:station:USF.COMPS:SHP:1,2019-09-05T15:54:00,30.0600,-84.2910,10.0,2.96,327.66,4.9,'11111222,11111222,11111222' 
COMPS,ioos:station:USF.COMPS:SHP:1,2019-09-05T16:54:00,30.0600,-84.2910,10.0,3.63,304.32,5.87,'11111222,11111222,11111222' 
COMPS,ioos:station:USF.COMPS:SHP:1,2019-09-05T17:54:00,30.0600,-84.2910,10.0,3.2,295.93,6.56,'11111222,11111222,11111222' 
COMPS,ioos:station:USF.COMPS:SHP:1,2019-09-05T18:54:00,30.0600,-84.2910,10.0,4.18,314.67,6.17,'11111222,11111222,11111222' 
COMPS,ioos:station:USF.COMPS:SHP:1,2019-09-05T19:54:00,30.0600,-84.2910,10.0,4.4,319.68,6.07,'11111222,11111222,11111222' 
COMPS,ioos:station:USF.COMPS:SHP:1,2019-09-05T20:54:00,30.0600,-84.2910,10.0,4.59,291.35,7.25,'11111222,11111222,11111222' 
COMPS,ioos:station:USF.COMPS:SHP:1,2019-09-05T21:54:00,30.0600,-84.2910,10.0,3.93,308.46,5.97,'11111222,11111222,11111222' 
COMPS,ioos:station:USF.COMPS:SHP:1,2019-09-05T22:54:00,30.0600,-84.2910,10.0,3.53,312.03,5.48,'11111222,11111222,11111222' 
COMPS,ioos:station:USF.COMPS:SHP:1,2019-09-05T23:54:00,30.0600,-84.2910,10.0,5.61,271.83,7.44,'11111222,11111222,11111222' 
COMPS,ioos:station:USF.COMPS:SHP:1,2019-09-06T00:54:00,30.0600,-84.2910,10.0,5.4,274.13,6.95,'11111222,11111222,11111222' 
COMPS,ioos:station:USF.COMPS:SHP:1,2019-09-06T01:54:00,30.0600,-84.2910,10.0,3.67,280.45,4.8,'11111222,11111222,11111222' 
COMPS,ioos:station:USF.COMPS:SHP:1,2019-09-06T02:54:00,30.0600,-84.2910,10.0,2.77,292.16,3.92,'11111222,11111222,11111222' 
COMPS,ioos:station:USF.COMPS:SHP:1,2019-09-06T03:54:00,30.0600,-84.2910,10.0,3.24,274.91,4.8,'11111222,11111222,11111222' 
COMPS,ioos:station:USF.COMPS:SHP:1,2019-09-06T05:54:00,30.0600,-84.2910,10.0,2.49,307.35,3.33,'11111222,11111222,11111222' 
COMPS,ioos:station:USF.COMPS:SHP:1,2019-09-06T06:54:00,30.0600,-84.2910,10.0,2.1,312.58,2.94,'11111222,11111222,11111222' 
COMPS,ioos:station:USF.COMPS:SHP:1,2019-09-06T07:54:00,30.0600,-84.2910,10.0,2.95,330.44,4.31,'11111222,11111222,11111222' 
COMPS,ioos:station:USF.COMPS:SHP:1,2019-09-06T08:54:00,30.0600,-84.2910,10.0,2.45,324.03,3.43,'11111222,11111222,11111222' 
COMPS,ioos:station:USF.COMPS:SHP:1,2019-09-06T09:54:00,30.0600,-84.2910,10.0,2.38,316.48,3.03,'11111222,11111222,11111222' 
COMPS,ioos:station:USF.COMPS:SHP:1,2019-09-06T10:54:00,30.0600,-84.2910,10.0,2.36,315.96,3.23,'11111222,11111222,11111222' 
COMPS,ioos:station:USF.COMPS:SHP:1,2019-09-06T11:54:00,30.0600,-84.2910,10.0,2.54,317.93,3.33,'11111222,11111222,11111222' 
COMPS,ioos:station:USF.COMPS:SHP:1,2019-09-06T12:54:00,30.0600,-84.2910,10.0,3.43,333.02,5.68,'11111222,11111222,11111222' 
COMPS,ioos:station:USF.COMPS:SHP:1,2019-09-06T13:54:00,30.0600,-84.2910,10.0,3.27,345.13,5.09,'11111222,11111222,11111222' 
COMPS,ioos:station:USF.COMPS:SHP:1,2019-09-06T14:54:00,30.0600,-84.2910,10.0,2.99,340.12,4.11,'11111222,11111222,11111222' 
COMPS,ioos:station:USF.COMPS:SHP:1,2019-09-06T15:54:00,30.0600,-84.2910,10.0,2.56,274.29,3.72,'11111222,11111222,11111222' 
COMPS,ioos:station:USF.COMPS:SHP:1,2019-09-06T16:54:00,30.0600,-84.2910,10.0,3.38,290.75,5.68,'11111222,11111222,11111222' 
COMPS,ioos:station:USF.COMPS:SHP:1,2019-09-06T17:54:00,30.0600,-84.2910,10.0,2.59,330.73,5.39,'11111222,11111222,11111222' 
COMPS,ioos:station:USF.COMPS:SHP:1,2019-09-06T18:54:00,30.0600,-84.2910,10.0,2.17,340.25,4.41,'11111222,11111222,11111222' 
COMPS,ioos:station:USF.COMPS:SHP:1,2019-09-06T19:54:00,30.0600,-84.2910,10.0,2.97,352.7,5.09,'11111222,11111222,11111222' 
COMPS,ioos:station:USF.COMPS:SHP:1,2019-09-06T20:54:00,30.0600,-84.2910,10.0,3.02,8.17,6.56,'11111222,11111222,11111222' 
COMPS,ioos:station:USF.COMPS:SHP:1,2019-09-06T21:54:00,30.0600,-84.2910,10.0,3.62,9.75,4.5,'11111222,11111222,11111222' 
COMPS,ioos:station:USF.COMPS:SHP:1,2019-09-06T22:54:00,30.0600,-84.2910,10.0,3.28,11.69,4.8,'11111222,11111222,11111222' 
COMPS,ioos:station:USF.COMPS:SHP:1,2019-09-06T23:54:00,30.0600,-84.2910,10.0,2.04,357.07,2.84,'11111222,11111222,11111222' 
COMPS,ioos:station:USF.COMPS:SHP:1,2019-09-07T00:54:00,30.0600,-84.2910,10.0,1.94,1.67,2.74,'11111222,11111222,11111222' 
COMPS,ioos:station:USF.COMPS:SHP:1,2019-09-07T01:54:00,30.0600,-84.2910,10.0,2.21,359.28,2.74,'11111222,11144222,11111222' 
COMPS,ioos:station:USF.COMPS:SHP:1,2019-09-07T02:54:00,30.0600,-84.2910,10.0,2.64,344.01,3.72,'11111222,11111222,11111222' 
COMPS,ioos:station:USF.COMPS:SHP:1,2019-09-07T03:54:00,30.0600,-84.2910,10.0,2.46,348.34,3.23,'11111222,11111222,11111222' 
COMPS,ioos:station:USF.COMPS:SHP:1,2019-09-07T04:54:00,30.0600,-84.2910,10.0,1.75,318.3,2.45,'11111222,11111222,11111222' 
COMPS,ioos:station:USF.COMPS:SHP:1,2019-09-07T05:54:00,30.0600,-84.2910,10.0,1.73,287.84,2.05,'11111222,11111222,11111222' 
COMPS,ioos:station:USF.COMPS:SHP:1,2019-09-07T06:54:00,30.0600,-84.2910,10.0,1.75,322.85,2.15,'11111222,11111222,11111222' 
COMPS,ioos:station:USF.COMPS:SHP:1,2019-09-07T07:54:00,30.0600,-84.2910,10.0,2.19,322.22,2.84,'11111222,11111222,11111222' 
COMPS,ioos:station:USF.COMPS:SHP:1,2019-09-07T08:54:00,30.0600,-84.2910,10.0,3.1,345.18,4.5,'11111222,11111222,11111222' 
COMPS,ioos:station:USF.COMPS:SHP:1,2019-09-07T09:54:00,30.0600,-84.2910,10.0,3.53,358.76,4.41,'11111222,11111222,11111222' 
COMPS,ioos:station:USF.COMPS:SHP:1,2019-09-07T10:54:00,30.0600,-84.2910,10.0,3.12,0.1,4.5,'11111222,11111222,11111222' 
COMPS,ioos:station:USF.COMPS:SHP:1,2019-09-07T11:54:00,30.0600,-84.2910,10.0,3.26,355.07,4.5,'11111222,11111222,11111222' 
COMPS,ioos:station:USF.COMPS:SHP:1,2019-09-07T12:54:00,30.0600,-84.2910,10.0,3.25,0.39,4.5,'11111222,11111222,11111222' 
COMPS,ioos:station:USF.COMPS:SHP:1,2019-09-07T13:54:00,30.0600,-84.2910,10.0,3.39,13.85,5.09,'11111222,11111222,11111222' 
COMPS,ioos:station:USF.COMPS:SHP:1,2019-09-07T14:54:00,30.0600,-84.2910,10.0,2.0,30.2,3.52,'11111222,11111222,11111222' 
COMPS,ioos:station:USF.COMPS:SHP:1,2019-09-07T15:54:00,30.0600,-84.2910,10.0,0.82,80.35,2.25,'11111222,11111222,11111222' 
COMPS,ioos:station:USF.COMPS:SHP:1,2019-09-07T16:54:00,30.0600,-84.2910,10.0,2.56,162.58,3.13,'11111222,11111222,11111222' 
COMPS,ioos:station:USF.COMPS:SHP:1,2019-09-07T17:54:00,30.0600,-84.2910,10.0,4.02,175.15,4.8,'11111222,11111222,11111222' 
COMPS,ioos:station:USF.COMPS:SHP:1,2019-09-07T18:54:00,30.0600,-84.2910,10.0,4.96,170.47,5.78,'11111222,11111222,11111222' 
COMPS,ioos:station:USF.COMPS:SHP:1,2019-09-07T19:54:00,30.0600,-84.2910,10.0,4.3,184.26,5.78,'11111222,11111222,11111222' 
COMPS,ioos:station:USF.COMPS:SHP:1,2019-09-07T20:54:00,30.0600,-84.2910,10.0,4.2,189.68,6.07,'11111222,11111222,11111222' 
COMPS,ioos:station:USF.COMPS:SHP:1,2019-09-07T21:54:00,30.0600,-84.2910,10.0,5.52,214.24,6.46,'11111222,11111222,11111222' 
COMPS,ioos:station:USF.COMPS:SHP:1,2019-09-07T22:54:00,30.0600,-84.2910,10.0,5.72,223.68,6.46,'11111222,11111222,11111222' 
COMPS,ioos:station:USF.COMPS:SHP:1,2019-09-07T23:54:00,30.0600,-84.2910,10.0,4.09,235.91,4.8,'11111222,11111222,11111222' 
COMPS,ioos:station:USF.COMPS:SHP:1,2019-09-08T00:54:00,30.0600,-84.2910,10.0,3.16,248.65,4.01,'11111222,11111222,11111222' 
COMPS,ioos:station:USF.COMPS:SHP:1,2019-09-08T01:54:00,30.0600,-84.2910,10.0,3.5,258.19,4.31,'11111222,11111222,11111222' 
COMPS,ioos:station:USF.COMPS:SHP:1,2019-09-08T02:54:00,30.0600,-84.2910,10.0,3.58,251.17,4.6,'11111222,11111222,11111222' 
COMPS,ioos:station:USF.COMPS:SHP:1,2019-09-08T03:54:00,30.0600,-84.2910,10.0,3.29,263.91,3.82,'11111222,11111222,11111222' 
COMPS,ioos:station:USF.COMPS:SHP:1,2019-09-08T04:54:00,30.0600,-84.2910,10.0,3.71,261.12,4.41,'11111222,11111222,11111222' 
COMPS,ioos:station:USF.COMPS:SHP:1,2019-09-08T05:54:00,30.0600,-84.2910,10.0,3.01,275.05,4.21,'11111222,11111222,11111222' 
COMPS,ioos:station:USF.COMPS:SHP:1,2019-09-08T06:54:00,30.0600,-84.2910,10.0,1.87,288.67,2.74,'11111222,11111222,11111222' 
COMPS,ioos:station:USF.COMPS:SHP:1,2019-09-08T07:54:00,30.0600,-84.2910,10.0,3.38,270.36,4.11,'11111222,11111222,11111222' 
COMPS,ioos:station:USF.COMPS:SHP:1,2019-09-08T08:54:00,30.0600,-84.2910,10.0,1.72,297.15,2.74,'11111222,11111222,11111222' 
COMPS,ioos:station:USF.COMPS:SHP:1,2019-09-08T09:54:00,30.0600,-84.2910,10.0,1.75,277.23,2.54,'11111222,11111222,11111222' 
COMPS,ioos:station:USF.COMPS:SHP:1,2019-09-08T10:54:00,30.0600,-84.2910,10.0,1.08,277.17,1.76,'11111222,11111222,11111222' 
COMPS,ioos:station:USF.COMPS:SHP:1,2019-09-08T11:54:00,30.0600,-84.2910,10.0,0.19,238.47,0.49,'11111222,11111222,11111222' 
COMPS,ioos:station:USF.COMPS:SHP:1,2019-09-08T12:54:00,30.0600,-84.2910,10.0,1.53,232.63,2.05,'11111222,11111222,11111222' 
COMPS,ioos:station:USF.COMPS:SHP:1,2019-09-08T13:54:00,30.0600,-84.2910,10.0,1.48,235.41,1.86,'11111222,11111222,11111222' 
COMPS,ioos:station:USF.COMPS:SHP:1,2019-09-08T14:54:00,30.0600,-84.2910,10.0,1.49,197.05,2.05,'11111222,11111222,11111222' 
COMPS,ioos:station:USF.COMPS:SHP:1,2019-09-08T15:54:00,30.0600,-84.2910,10.0,2.83,182.7,3.92,'11111222,11111222,11111222' 
COMPS,ioos:station:USF.COMPS:SHP:1,2019-09-08T16:54:00,30.0600,-84.2910,10.0,4.35,178.74,6.07,'11111222,11111222,11111222' 
COMPS,ioos:station:USF.COMPS:SHP:1,2019-09-08T17:54:00,30.0600,-84.2910,10.0,4.01,184.08,5.78,'11111222,11111222,11111222' 
COMPS,ioos:station:USF.COMPS:SHP:1,2019-09-08T18:54:00,30.0600,-84.2910,10.0,4.79,193.63,6.46,'11111222,11111222,11111222' 
COMPS,ioos:station:USF.COMPS:SHP:1,2019-09-08T19:54:00,30.0600,-84.2910,10.0,6.29,201.39,7.35,'11111222,11111222,11111222' 
COMPS,ioos:station:USF.COMPS:SHP:1,2019-09-08T20:54:00,30.0600,-84.2910,10.0,6.34,220.48,7.25,'11111222,11111222,11111222' 
COMPS,ioos:station:USF.COMPS:SHP:1,2019-09-08T21:54:00,30.0600,-84.2910,10.0,5.65,220.93,6.76,'11111222,11111222,11111222' 
COMPS,ioos:station:USF.COMPS:SHP:1,2019-09-08T22:54:00,30.0600,-84.2910,10.0,5.67,228.62,6.85,'11111222,11111222,11111222' 
COMPS,ioos:station:USF.COMPS:SHP:1,2019-09-08T23:54:00,30.0600,-84.2910,10.0,5.05,232.86,5.97,'11111222,11111222,11111222' 
COMPS,ioos:station:USF.COMPS:SHP:1,2019-09-09T00:54:00,30.0600,-84.2910,10.0,4.13,234.51,5.19,'11111222,11111222,11111222' 
COMPS,ioos:station:USF.COMPS:SHP:1,2019-09-09T01:54:00,30.0600,-84.2910,10.0,3.45,253.1,4.01,'11111222,11111222,11111222' 
COMPS,ioos:station:USF.COMPS:SHP:1,2019-09-09T02:54:00,30.0600,-84.2910,10.0,3.68,264.97,4.41,'11111222,11111222,11111222' 
COMPS,ioos:station:USF.COMPS:SHP:1,2019-09-09T03:54:00,30.0600,-84.2910,10.0,2.47,280.56,3.52,'11111222,11111222,11111222' 